This demonstration page uses our WeatherBlox Daily Observations layout. Learn more.

Left ArrowRight Arrow

40.97296, -117.73568

Hourly Observations for August 5, 2022

Temp ( °F °C ) Dew Point ( °F °C ) Humidity (%) Winds ( mph kmh ) Pressure ( in mb ) Visibility ( mi km ) Precip ( " mm )
12:56 am 00:56 Cloudy with Light Rain 70 21.1 61 16.1 73 73 S 6 9 29.88 1012 7 11 0.00 0.00
1:56 am 01:56 Mostly Clear 70 21.1 58 14.4 66 66 SW 5 7 29.85 1011 10 16 0.00 0.00
2:56 am 02:56 Clear 69 20.6 61 16.1 76 76 SSE 9 15 29.84 1011 9 14 0.00 0.00
3:56 am 03:56 Mostly Clear 69 20.6 61 16.1 76 76 S 9 15 29.83 1010 10 16 0.00 0.00
4:56 am 04:56 Cloudy 70 21.1 59 15 68 68 S 7 11 29.84 1011 10 16 0.00 0.00
5:56 am 05:56 Cloudy 69 20.6 60 15.6 73 73 SW 3 6 29.86 1011 10 16 0.00 0.00
6:56 am 06:56 Cloudy 68 20 61 16.1 78 78 SE 5 7 29.88 1012 10 16 0.00 0.00
7:56 am 07:56 Cloudy 71 21.7 61 16.1 71 71 Calm 29.90 1013 10 16 0.00 0.00
8:56 am 08:56 Cloudy 73 22.8 61 16.1 66 66 Calm 29.91 1013 10 16 0.00 0.00
9:56 am 09:56 Cloudy 76 24.4 59 15 56 56 S 3 6 29.90 1013 10 16 0.00 0.00
10:56 am 10:56 Cloudy with Light Rain 76 24.4 60 15.6 58 58 SE 6 9 29.91 1013 10 16 0.00 0.00
11:56 am 11:56 Mostly Sunny 80 26.7 57 13.9 45 45 ESE 7 11 29.90 1013 10 16 0.00 0.00
12:56 pm 12:56 Mostly Sunny 84 28.9 55 12.8 37 37 ESE 6 9 29.88 1012 10 16 0.00 0.00
1:56 pm 13:56 Sunny 87 30.6 55 12.8 34 34 VRB 6 9 29.84 1011 10 16 0.00 0.00
2:56 pm 14:56 Mostly Cloudy 88 31.1 54 12.2 31 31 VRB 5 7 29.82 1010 10 16 0.00 0.00
3:11 pm 15:11 Partly Cloudy with Nearby Thunderstorms 85 29.4 53 11.7 33 33 SSE 7 11 29.63 1003 10 16 0.00 0.00
3:26 pm 15:26 Mostly Cloudy with Light Rain 81 27.2 55 12.8 41 41 WSW 16 26 29.68 1005 10 16 0.00 0.00
3:56 pm 15:56 Mostly Cloudy with Light Rain 70 21.1 63 17.2 79 79 SW 15 24 29.87 1011 9 14 0.03 0.76
4:24 pm 16:24 Mostly Cloudy with Nearby Thunderstorms 73 22.8 62 16.7 69 69 SSW 6 9 29.74 1007 10 16 0.00 0.00
4:39 pm 16:39 Cloudy with Light Rain 74 23.3 61 16.1 64 64 SE 10 17 29.73 1007 10 16 0.00 0.00
4:56 pm 16:56 Cloudy with Light Rain 74 23.3 61 16.1 64 64 SSE 13 20 29.86 1011 10 16 0.00 0.00
5:56 pm 17:56 Cloudy 71 21.7 61 16.1 71 71 S 20 31 29.86 1011 10 16 0.00 0.00
6:56 pm 18:56 Mostly Cloudy 71 21.7 60 15.6 68 68 S 17 28 29.87 1012 10 16 0.00 0.00
7:56 pm 19:56 Mostly Sunny 70 21.1 60 15.6 71 71 S 16 26 29.88 1012 10 16 0.00 0.00
8:56 pm 20:56 Mostly Cloudy 69 20.6 60 15.6 73 73 SSE 14 22 29.90 1013 10 16 0.00 0.00
9:56 pm 21:56 Cloudy 69 20.6 61 16.1 76 76 S 9 15 29.93 1014 10 16 0.00 0.00
10:56 pm 22:56 Cloudy with Light Rain 68 20 61 16.1 78 78 NE 9 15 29.96 1015 10 16 0.01 0.25
11:21 pm 23:21 Cloudy with Light Rain 66 18.9 63 17.2 90 90 undefined N/A 29.90 1013 10 16 0.00 0.00
11:56 pm 23:56 Cloudy with Light Rain 64 17.8 62 16.7 93 93 NE 10 17 29.96 1015 10 16 0.01 0.25

Powered by AerisWeather